Year,Month,Day,Hour,Minute,Value (Times are PST for temperature in C)
2013,05,01,00,00,5.50
2013,05,01,00,01,5.50
2013,05,01,00,02,5.60
2013,05,01,00,03,5.70
2013,05,01,00,04,5.70
2013,05,01,00,05,5.70
2013,05,01,00,06,5.70
2013,05,01,00,07,5.80
2013,05,01,00,08,5.80
2013,05,01,00,09,5.80
2013,05,01,00,10,5.90
2013,05,01,00,11,5.90
2013,05,01,00,12,5.90
2013,05,01,00,13,5.90
2013,05,01,00,14,6.00
2013,05,01,00,15,6.00
2013,05,01,00,16,6.10
2013,05,01,00,17,6.10
2013,05,01,00,18,6.10
2013,05,01,00,19,6.10
2013,05,01,00,20,6.10
2013,05,01,00,21,6.10
2013,05,01,00,22,6.10
2013,05,01,00,23,6.10
2013,05,01,00,24,6.10
2013,05,01,00,25,6.20
2013,05,01,00,26,6.20
2013,05,01,00,27,6.30
2013,05,01,00,28,6.30
2013,05,01,00,29,6.30
2013,05,01,00,30,6.40
2013,05,01,00,31,6.40
2013,05,01,00,32,6.40
2013,05,01,00,33,6.30
2013,05,01,00,34,6.30
2013,05,01,00,35,6.30
2013,05,01,00,36,6.30
2013,05,01,00,37,6.30
2013,05,01,00,38,6.30
2013,05,01,00,39,6.20
2013,05,01,00,40,6.20
2013,05,01,00,41,6.20
2013,05,01,00,42,6.20
2013,05,01,00,43,6.20
2013,05,01,00,44,6.20
2013,05,01,00,45,6.20
2013,05,01,00,46,6.20
2013,05,01,00,47,6.20
2013,05,01,00,48,6.20
2013,05,01,00,49,6.20
2013,05,01,00,50,6.20
2013,05,01,00,51,6.20
2013,05,01,00,52,6.10
2013,05,01,00,53,6.10
2013,05,01,00,54,6.10
2013,05,01,00,55,6.10
2013,05,01,00,56,6.10
2013,05,01,00,57,6.00
2013,05,01,00,58,6.00
2013,05,01,00,59,6.00
2013,05,01,01,00,6.00
2013,05,01,01,01,5.90
2013,05,01,01,02,5.90
2013,05,01,01,03,5.90
2013,05,01,01,04,5.90
2013,05,01,01,05,5.90
2013,05,01,01,06,5.80
2013,05,01,01,07,5.80
2013,05,01,01,08,5.80
2013,05,01,01,09,5.80
2013,05,01,01,10,5.80
2013,05,01,01,11,5.80
2013,05,01,01,12,5.80
2013,05,01,01,13,5.80
2013,05,01,01,14,5.70
2013,05,01,01,15,5.70
2013,05,01,01,16,5.70
2013,05,01,01,17,5.70
2013,05,01,01,18,5.70
2013,05,01,01,19,5.60
2013,05,01,01,20,5.60
2013,05,01,01,21,5.60
2013,05,01,01,22,5.50
2013,05,01,01,23,5.50
2013,05,01,01,24,5.40
2013,05,01,01,25,5.40
2013,05,01,01,26,5.40
2013,05,01,01,27,5.30
2013,05,01,01,28,5.30
2013,05,01,01,29,5.30
2013,05,01,01,30,5.20
2013,05,01,01,31,5.20
2013,05,01,01,32,5.10
2013,05,01,01,33,5.10
2013,05,01,01,34,5.00
2013,05,01,01,35,4.90
2013,05,01,01,36,4.90
2013,05,01,01,37,4.90
2013,05,01,01,38,4.80
2013,05,01,01,39,4.80
2013,05,01,01,40,4.80
2013,05,01,01,41,4.70
2013,05,01,01,42,4.70
2013,05,01,01,43,4.70
2013,05,01,01,44,4.60
2013,05,01,01,45,4.60
2013,05,01,01,46,4.60
2013,05,01,01,47,4.50
2013,05,01,01,48,4.50
2013,05,01,01,49,4.40
2013,05,01,01,50,4.40
2013,05,01,01,51,4.40
2013,05,01,01,52,4.30
2013,05,01,01,53,4.30
2013,05,01,01,54,4.30
2013,05,01,01,55,4.20
2013,05,01,01,56,4.20
2013,05,01,01,57,4.20
2013,05,01,01,58,4.10
2013,05,01,01,59,4.10
2013,05,01,02,00,4.00
2013,05,01,02,01,4.00
2013,05,01,02,02,3.90
2013,05,01,02,03,3.90
2013,05,01,02,04,3.90
2013,05,01,02,05,3.80
2013,05,01,02,06,3.80
2013,05,01,02,07,3.80
2013,05,01,02,08,3.70
2013,05,01,02,09,3.70
2013,05,01,02,10,3.70
2013,05,01,02,11,3.60
2013,05,01,02,12,3.60
2013,05,01,02,13,3.50
2013,05,01,02,14,3.50
2013,05,01,02,15,3.40
2013,05,01,02,16,3.40
2013,05,01,02,17,3.40
2013,05,01,02,18,3.30
2013,05,01,02,19,3.30
2013,05,01,02,20,3.30
2013,05,01,02,21,3.30
2013,05,01,02,22,3.20
2013,05,01,02,23,3.20
2013,05,01,02,24,3.20
2013,05,01,02,25,3.20
2013,05,01,02,26,3.20
2013,05,01,02,27,3.20
2013,05,01,02,28,3.10
2013,05,01,02,29,3.10
2013,05,01,02,30,3.10
2013,05,01,02,31,3.10
2013,05,01,02,32,3.10
2013,05,01,02,33,3.00
2013,05,01,02,34,3.00
2013,05,01,02,35,3.00
2013,05,01,02,36,2.90
2013,05,01,02,37,2.90
2013,05,01,02,38,2.90
2013,05,01,02,39,2.90
2013,05,01,02,40,2.80
2013,05,01,02,41,2.80
2013,05,01,02,42,2.80
2013,05,01,02,43,2.80
2013,05,01,02,44,2.80
2013,05,01,02,45,2.80
2013,05,01,02,46,2.70
2013,05,01,02,47,2.70
2013,05,01,02,48,2.70
2013,05,01,02,49,2.70
2013,05,01,02,50,2.60
2013,05,01,02,51,2.60
2013,05,01,02,52,2.60
2013,05,01,02,53,2.60
2013,05,01,02,54,2.50
2013,05,01,02,55,2.50
2013,05,01,02,56,2.50
2013,05,01,02,57,2.40
2013,05,01,02,58,2.40
2013,05,01,02,59,2.40
2013,05,01,03,00,2.40
2013,05,01,03,01,2.30
2013,05,01,03,02,2.30
2013,05,01,03,03,2.30
2013,05,01,03,04,2.30
2013,05,01,03,05,2.30
2013,05,01,03,06,2.30
2013,05,01,03,07,2.20
2013,05,01,03,08,2.20
2013,05,01,03,09,2.20
2013,05,01,03,10,2.20
2013,05,01,03,11,2.20
2013,05,01,03,12,2.20
2013,05,01,03,13,2.20
2013,05,01,03,14,2.20
2013,05,01,03,15,2.20
2013,05,01,03,16,2.20
2013,05,01,03,17,2.20
2013,05,01,03,18,2.10
2013,05,01,03,19,2.10
2013,05,01,03,20,2.10
2013,05,01,03,21,2.10
2013,05,01,03,22,2.10
2013,05,01,03,23,2.10
2013,05,01,03,24,2.00
2013,05,01,03,25,2.00
2013,05,01,03,26,2.00
2013,05,01,03,27,2.00
2013,05,01,03,28,1.90
2013,05,01,03,29,1.90
2013,05,01,03,30,1.90
2013,05,01,03,31,1.90
2013,05,01,03,32,1.90
2013,05,01,03,33,1.90
2013,05,01,03,34,1.90
2013,05,01,03,35,1.90
2013,05,01,03,36,1.80
2013,05,01,03,37,1.80
2013,05,01,03,38,1.80
2013,05,01,03,39,1.80
2013,05,01,03,40,1.80
2013,05,01,03,41,1.80
2013,05,01,03,42,1.80
2013,05,01,03,43,1.80
2013,05,01,03,44,1.80
2013,05,01,03,45,1.80
2013,05,01,03,46,1.80
2013,05,01,03,47,1.70
2013,05,01,03,48,1.70
2013,05,01,03,49,1.70
2013,05,01,03,50,1.70
2013,05,01,03,51,1.70
2013,05,01,03,52,1.70
2013,05,01,03,53,1.60
2013,05,01,03,54,1.60
2013,05,01,03,55,1.60
2013,05,01,03,56,1.60
2013,05,01,03,57,1.50
2013,05,01,03,58,1.50
2013,05,01,03,59,1.50
2013,05,01,04,00,1.50
2013,05,01,04,01,1.50
2013,05,01,04,02,1.40
2013,05,01,04,03,1.40
2013,05,01,04,04,1.40
2013,05,01,04,05,1.40
2013,05,01,04,06,1.40
2013,05,01,04,07,1.30
2013,05,01,04,08,1.30
2013,05,01,04,09,1.30
2013,05,01,04,10,1.30
2013,05,01,04,11,1.30
2013,05,01,04,12,1.30
2013,05,01,04,13,1.30
2013,05,01,04,14,1.30
2013,05,01,04,15,1.40
2013,05,01,04,16,1.40
2013,05,01,04,17,1.40
2013,05,01,04,18,1.50
2013,05,01,04,19,1.50
2013,05,01,04,20,1.60
2013,05,01,04,21,1.60
2013,05,01,04,22,1.60
2013,05,01,04,23,1.60
2013,05,01,04,24,1.70
2013,05,01,04,25,1.70
2013,05,01,04,26,1.70
2013,05,01,04,27,1.70
2013,05,01,04,28,1.70
2013,05,01,04,29,1.80
2013,05,01,04,30,1.80
2013,05,01,04,31,1.80
2013,05,01,04,32,1.80
2013,05,01,04,33,1.80
2013,05,01,04,34,1.80
2013,05,01,04,35,1.80
2013,05,01,04,36,1.80
2013,05,01,04,37,1.80
2013,05,01,04,38,1.80
2013,05,01,04,39,1.80
2013,05,01,04,40,1.80
2013,05,01,04,41,1.80
2013,05,01,04,42,1.80
2013,05,01,04,43,1.80
2013,05,01,04,44,1.80
2013,05,01,04,45,1.80
2013,05,01,04,46,1.80
2013,05,01,04,47,1.70
2013,05,01,04,48,1.70
2013,05,01,04,49,1.70
2013,05,01,04,50,1.70
2013,05,01,04,51,1.70
2013,05,01,04,52,1.70
2013,05,01,04,53,1.60
2013,05,01,04,54,1.60
2013,05,01,04,55,1.60
2013,05,01,04,56,1.60
2013,05,01,04,57,1.60
2013,05,01,04,58,1.60
2013,05,01,04,59,1.60
2013,05,01,05,00,1.60
2013,05,01,05,01,1.60
2013,05,01,05,02,1.50
2013,05,01,05,03,1.60
2013,05,01,05,04,1.60
2013,05,01,05,05,1.50
2013,05,01,05,06,1.60
2013,05,01,05,07,1.60
2013,05,01,05,08,1.60
2013,05,01,05,09,1.60
2013,05,01,05,10,1.70
2013,05,01,05,11,1.70
2013,05,01,05,12,1.70
2013,05,01,05,13,1.70
2013,05,01,05,14,1.80
2013,05,01,05,15,1.80
2013,05,01,05,16,1.90
2013,05,01,05,17,1.90
2013,05,01,05,18,1.90
2013,05,01,05,19,1.90
2013,05,01,05,20,1.90
2013,05,01,05,21,1.90
2013,05,01,05,22,1.90
2013,05,01,05,23,1.90
2013,05,01,05,24,1.90
2013,05,01,05,25,1.90
2013,05,01,05,26,1.90
2013,05,01,05,27,1.90
2013,05,01,05,28,1.90
2013,05,01,05,29,1.90
2013,05,01,05,30,1.90
2013,05,01,05,31,1.80
2013,05,01,05,32,1.80
2013,05,01,05,33,1.80
2013,05,01,05,34,1.80
2013,05,01,05,35,1.80
2013,05,01,05,36,1.80
2013,05,01,05,37,1.70
2013,05,01,05,38,1.70
2013,05,01,05,39,1.70
2013,05,01,05,40,1.70
2013,05,01,05,41,1.70
2013,05,01,05,42,1.70
2013,05,01,05,43,1.70
2013,05,01,05,44,1.70
2013,05,01,05,45,1.70
2013,05,01,05,46,1.70
2013,05,01,05,47,1.70
2013,05,01,05,48,1.70
2013,05,01,05,49,1.70
2013,05,01,05,50,1.70
2013,05,01,05,51,1.70
2013,05,01,05,52,1.70
2013,05,01,05,53,1.70
2013,05,01,05,54,1.70
2013,05,01,05,55,1.70
2013,05,01,05,56,1.70
2013,05,01,05,57,1.70
2013,05,01,05,58,1.70
2013,05,01,05,59,1.70
2013,05,01,06,00,1.70
2013,05,01,06,01,1.70
2013,05,01,06,02,1.60
2013,05,01,06,03,1.60
2013,05,01,06,04,1.60
2013,05,01,06,05,1.60
2013,05,01,06,06,1.60
2013,05,01,06,07,1.60
2013,05,01,06,08,1.60
2013,05,01,06,09,1.60
2013,05,01,06,10,1.50
2013,05,01,06,11,1.50
2013,05,01,06,12,1.50
2013,05,01,06,13,1.50
2013,05,01,06,14,1.50
2013,05,01,06,15,1.50
2013,05,01,06,16,1.50
2013,05,01,06,17,1.40
2013,05,01,06,18,1.40
2013,05,01,06,19,1.40
2013,05,01,06,20,1.40
2013,05,01,06,21,1.40
2013,05,01,06,22,1.40
2013,05,01,06,23,1.40
2013,05,01,06,24,1.40
2013,05,01,06,25,1.30
2013,05,01,06,26,1.30
2013,05,01,06,27,1.30
2013,05,01,06,28,1.30
2013,05,01,06,29,1.30
2013,05,01,06,30,1.30
2013,05,01,06,31,1.30
2013,05,01,06,32,1.30
2013,05,01,06,33,1.30
2013,05,01,06,34,1.30
2013,05,01,06,35,1.30
2013,05,01,06,36,1.30
2013,05,01,06,37,1.30
2013,05,01,06,38,1.30
2013,05,01,06,39,1.30
2013,05,01,06,40,1.30
2013,05,01,06,41,1.30
2013,05,01,06,42,1.30
2013,05,01,06,43,1.30
2013,05,01,06,44,1.30
2013,05,01,06,45,1.30
2013,05,01,06,46,1.30
2013,05,01,06,47,1.30
2013,05,01,06,48,1.30
2013,05,01,06,49,1.30
2013,05,01,06,50,1.30
2013,05,01,06,51,1.30
2013,05,01,06,52,1.30
2013,05,01,06,53,1.30
2013,05,01,06,54,1.30
2013,05,01,06,55,1.30
2013,05,01,06,56,1.30
2013,05,01,06,57,1.40
2013,05,01,06,58,1.40
2013,05,01,06,59,1.40
2013,05,01,07,00,1.40
2013,05,01,07,01,1.40
2013,05,01,07,02,1.40
2013,05,01,07,03,1.50
2013,05,01,07,04,1.50
2013,05,01,07,05,1.60
2013,05,01,07,06,1.60
2013,05,01,07,07,1.60
2013,05,01,07,08,1.70
2013,05,01,07,09,1.70
2013,05,01,07,10,1.70
2013,05,01,07,11,1.80
2013,05,01,07,12,1.80
2013,05,01,07,13,1.80
2013,05,01,07,14,1.90
2013,05,01,07,15,1.90
2013,05,01,07,16,2.00
2013,05,01,07,17,2.00
2013,05,01,07,18,2.10
2013,05,01,07,19,2.20
2013,05,01,07,20,2.20
2013,05,01,07,21,2.30
2013,05,01,07,22,2.40
2013,05,01,07,23,2.40
2013,05,01,07,24,2.50
2013,05,01,07,25,2.50
2013,05,01,07,26,2.60
2013,05,01,07,27,2.60
2013,05,01,07,28,2.60
2013,05,01,07,29,2.70
2013,05,01,07,30,2.70
2013,05,01,07,31,2.70
2013,05,01,07,32,2.80
2013,05,01,07,33,2.80
2013,05,01,07,34,2.90
2013,05,01,07,35,2.90
2013,05,01,07,36,3.00
2013,05,01,07,37,3.10
2013,05,01,07,38,3.10
2013,05,01,07,39,3.20
2013,05,01,07,40,3.20
2013,05,01,07,41,3.20
2013,05,01,07,42,3.30
2013,05,01,07,43,3.30
2013,05,01,07,44,3.30
2013,05,01,07,45,3.30
2013,05,01,07,46,3.40
2013,05,01,07,47,3.40
2013,05,01,07,48,3.50
2013,05,01,07,49,3.50
2013,05,01,07,50,3.60
2013,05,01,07,51,3.60
2013,05,01,07,52,3.70
2013,05,01,07,53,3.70
2013,05,01,07,54,3.80
2013,05,01,07,55,3.80
2013,05,01,07,56,3.80
2013,05,01,07,57,3.90
2013,05,01,07,58,3.90
2013,05,01,07,59,4.00
2013,05,01,08,00,4.00
2013,05,01,08,01,4.10
2013,05,01,08,02,4.10
2013,05,01,08,03,4.20
2013,05,01,08,04,4.20
2013,05,01,08,05,4.30
2013,05,01,08,06,4.30
2013,05,01,08,07,4.40
2013,05,01,08,08,4.50
2013,05,01,08,09,4.60
2013,05,01,08,10,4.70
2013,05,01,08,11,4.80
2013,05,01,08,12,4.90
2013,05,01,08,13,4.90
2013,05,01,08,14,5.00
2013,05,01,08,15,5.10
2013,05,01,08,16,5.20
2013,05,01,08,17,5.30
2013,05,01,08,18,5.30
2013,05,01,08,19,5.40
2013,05,01,08,20,5.50
2013,05,01,08,21,5.60
2013,05,01,08,22,5.70
2013,05,01,08,23,5.80
2013,05,01,08,24,5.90
2013,05,01,08,25,6.00
2013,05,01,08,26,6.10
2013,05,01,08,27,6.20
2013,05,01,08,28,6.30
2013,05,01,08,29,6.40
2013,05,01,08,30,6.50
2013,05,01,08,31,6.60
2013,05,01,08,32,6.60
2013,05,01,08,33,6.70
2013,05,01,08,34,6.70
2013,05,01,08,35,6.70
2013,05,01,08,36,6.80
2013,05,01,08,37,6.80
2013,05,01,08,38,6.90
2013,05,01,08,39,6.90
2013,05,01,08,40,7.00
2013,05,01,08,41,7.00
2013,05,01,08,42,7.10
2013,05,01,08,43,7.10
2013,05,01,08,44,7.20
2013,05,01,08,45,7.30
2013,05,01,08,46,7.30
2013,05,01,08,47,7.40
2013,05,01,08,48,7.40
2013,05,01,08,49,7.50
2013,05,01,08,50,7.60
2013,05,01,08,51,7.70
2013,05,01,08,52,7.80
2013,05,01,08,53,7.90
2013,05,01,08,54,7.90
2013,05,01,08,55,8.00
2013,05,01,08,56,8.10
2013,05,01,08,57,8.10
2013,05,01,08,58,8.20
2013,05,01,08,59,8.20
2013,05,01,09,00,8.30
2013,05,01,09,01,8.30
2013,05,01,09,02,8.30
2013,05,01,09,03,8.40
2013,05,01,09,04,8.40
2013,05,01,09,05,8.50
2013,05,01,09,06,8.60
2013,05,01,09,07,8.60
2013,05,01,09,08,8.70
2013,05,01,09,09,8.80
2013,05,01,09,10,8.80
2013,05,01,09,11,8.90
2013,05,01,09,12,9.00
2013,05,01,09,13,9.10
2013,05,01,09,14,9.20
2013,05,01,09,15,9.20
2013,05,01,09,16,9.20
2013,05,01,09,17,9.30
2013,05,01,09,18,9.30
2013,05,01,09,19,9.30
2013,05,01,09,20,9.40
2013,05,01,09,21,9.50
2013,05,01,09,22,9.60
2013,05,01,09,23,9.60
2013,05,01,09,24,9.60
2013,05,01,09,25,9.60
2013,05,01,09,26,9.60
2013,05,01,09,27,9.70
2013,05,01,09,28,9.70
2013,05,01,09,29,9.70
2013,05,01,09,30,9.70
2013,05,01,09,31,9.60
2013,05,01,09,32,9.60
2013,05,01,09,33,9.60
2013,05,01,09,34,9.70
2013,05,01,09,35,9.70
2013,05,01,09,36,9.70
2013,05,01,09,37,9.80
2013,05,01,09,38,9.90
2013,05,01,09,39,10.00
2013,05,01,09,40,10.00
2013,05,01,09,41,10.10
2013,05,01,09,42,10.10
2013,05,01,09,43,10.10
2013,05,01,09,44,10.10
2013,05,01,09,45,10.10
2013,05,01,09,46,10.20
2013,05,01,09,47,10.20
2013,05,01,09,48,10.20
2013,05,01,09,49,10.20
2013,05,01,09,50,10.20
2013,05,01,09,51,10.20
2013,05,01,09,52,10.20
2013,05,01,09,53,10.30
2013,05,01,09,54,10.40
2013,05,01,09,55,10.50
2013,05,01,09,56,10.60
2013,05,01,09,57,10.70
2013,05,01,09,58,10.70
2013,05,01,09,59,10.80
2013,05,01,10,00,10.90
2013,05,01,10,01,10.90
2013,05,01,10,02,11.00
2013,05,01,10,03,11.00
2013,05,01,10,04,11.00
2013,05,01,10,05,10.90
2013,05,01,10,06,10.90
2013,05,01,10,07,11.00
2013,05,01,10,08,11.00
2013,05,01,10,09,11.10
2013,05,01,10,10,11.10
2013,05,01,10,11,11.20
2013,05,01,10,12,11.20
2013,05,01,10,13,11.10
2013,05,01,10,14,11.10
2013,05,01,10,15,11.00
2013,05,01,10,16,11.00
2013,05,01,10,17,10.90
2013,05,01,10,18,10.90
2013,05,01,10,19,10.90
2013,05,01,10,20,11.00
2013,05,01,10,21,11.00
2013,05,01,10,22,11.00
2013,05,01,10,23,11.10
2013,05,01,10,24,11.10
2013,05,01,10,25,11.10
2013,05,01,10,26,11.20
2013,05,01,10,27,11.20
2013,05,01,10,28,11.20
2013,05,01,10,29,11.30
2013,05,01,10,30,11.40
2013,05,01,10,31,11.40
2013,05,01,10,32,11.40
2013,05,01,10,33,11.30
2013,05,01,10,34,11.20
2013,05,01,10,35,11.10
2013,05,01,10,36,11.10
2013,05,01,10,37,11.10
2013,05,01,10,38,11.00
2013,05,01,10,39,11.00
2013,05,01,10,40,10.90
2013,05,01,10,41,10.90
2013,05,01,10,42,10.90
2013,05,01,10,43,11.00
2013,05,01,10,44,11.00
2013,05,01,10,45,11.00
2013,05,01,10,46,10.90
2013,05,01,10,47,10.90
2013,05,01,10,48,10.90
2013,05,01,10,49,10.80
2013,05,01,10,50,10.80
2013,05,01,10,51,10.70
2013,05,01,10,52,10.70
2013,05,01,10,53,10.70
2013,05,01,10,54,10.80
2013,05,01,10,55,10.80
2013,05,01,10,56,10.80
2013,05,01,10,57,10.80
2013,05,01,10,58,10.80
2013,05,01,10,59,10.80
2013,05,01,11,00,10.80
2013,05,01,11,01,10.80
2013,05,01,11,02,10.80
2013,05,01,11,03,10.80
2013,05,01,11,04,10.80
2013,05,01,11,05,10.80
2013,05,01,11,06,10.80
2013,05,01,11,07,10.80
2013,05,01,11,08,10.90
2013,05,01,11,09,11.00
2013,05,01,11,10,11.10
2013,05,01,11,11,11.10
2013,05,01,11,12,11.20
2013,05,01,11,13,11.20
2013,05,01,11,14,11.40
2013,05,01,11,15,11.40
2013,05,01,11,16,11.50
2013,05,01,11,17,11.50
2013,05,01,11,18,11.50
2013,05,01,11,19,11.60
2013,05,01,11,20,11.60
2013,05,01,11,21,11.60
2013,05,01,11,22,11.70
2013,05,01,11,23,11.70
2013,05,01,11,24,11.80
2013,05,01,11,25,11.90
2013,05,01,11,26,11.90
2013,05,01,11,27,11.90
2013,05,01,11,28,11.90
2013,05,01,11,29,11.80
2013,05,01,11,30,11.80
2013,05,01,11,31,11.80
2013,05,01,11,32,11.80
2013,05,01,11,33,11.80
2013,05,01,11,34,11.90
2013,05,01,11,35,12.00
2013,05,01,11,36,12.10
2013,05,01,11,37,12.10
2013,05,01,11,38,12.00
2013,05,01,11,39,12.00
2013,05,01,11,40,12.00
2013,05,01,11,41,11.90
2013,05,01,11,42,11.90
2013,05,01,11,43,11.80
2013,05,01,11,44,11.80
2013,05,01,11,45,11.80
2013,05,01,11,46,11.80
2013,05,01,11,47,11.80
2013,05,01,11,48,11.80
2013,05,01,11,49,11.90
2013,05,01,11,50,11.90
2013,05,01,11,51,11.80
2013,05,01,11,52,11.80
2013,05,01,11,53,11.70
2013,05,01,11,54,11.50
2013,05,01,11,55,11.40
2013,05,01,11,56,11.20
2013,05,01,11,57,11.20
2013,05,01,11,58,11.20
2013,05,01,11,59,11.20
2013,05,01,12,00,11.20
2013,05,01,12,01,11.20
2013,05,01,12,02,11.20
2013,05,01,12,03,11.30
2013,05,01,12,04,11.30
2013,05,01,12,05,11.40
2013,05,01,12,06,11.40
2013,05,01,12,07,11.40
2013,05,01,12,08,11.40
2013,05,01,12,09,11.30
2013,05,01,12,10,11.30
2013,05,01,12,11,11.30
2013,05,01,12,12,11.30
2013,05,01,12,13,11.30
2013,05,01,12,14,11.40
2013,05,01,12,15,11.40
2013,05,01,12,16,11.40
2013,05,01,12,17,11.40
2013,05,01,12,18,11.40
2013,05,01,12,19,11.30
2013,05,01,12,20,11.40
2013,05,01,12,21,11.50
2013,05,01,12,22,11.50
2013,05,01,12,23,11.50
2013,05,01,12,24,11.50
2013,05,01,12,25,11.40
2013,05,01,12,26,11.40
2013,05,01,12,27,11.40
2013,05,01,12,28,11.40
2013,05,01,12,29,11.40
2013,05,01,12,30,11.40
2013,05,01,12,31,11.40
2013,05,01,12,32,11.40
2013,05,01,12,33,11.50
2013,05,01,12,34,11.60
2013,05,01,12,35,11.70
2013,05,01,12,36,11.90
2013,05,01,12,37,12.00
2013,05,01,12,38,12.20
2013,05,01,12,39,12.30
2013,05,01,12,40,12.30
2013,05,01,12,41,12.30
2013,05,01,12,42,12.30
2013,05,01,12,43,12.20
2013,05,01,12,44,12.20
2013,05,01,12,45,12.20
2013,05,01,12,46,12.20
2013,05,01,12,47,12.20
2013,05,01,12,48,12.20
2013,05,01,12,49,12.20
2013,05,01,12,50,12.10
2013,05,01,12,51,12.00
2013,05,01,12,52,12.00
2013,05,01,12,53,12.00
2013,05,01,12,54,12.00
2013,05,01,12,55,12.10
2013,05,01,12,56,12.10
2013,05,01,12,57,12.10
2013,05,01,12,58,12.20
2013,05,01,12,59,12.30
2013,05,01,13,00,12.30
2013,05,01,13,01,12.40
2013,05,01,13,02,12.40
2013,05,01,13,03,12.40
2013,05,01,13,04,12.40
2013,05,01,13,05,12.50
2013,05,01,13,06,12.60
2013,05,01,13,07,12.70
2013,05,01,13,08,12.80
2013,05,01,13,09,12.90
2013,05,01,13,10,12.90
2013,05,01,13,11,13.00
2013,05,01,13,12,13.10
2013,05,01,13,13,13.10
2013,05,01,13,14,13.10
2013,05,01,13,15,13.10
2013,05,01,13,16,13.10
2013,05,01,13,17,13.10
2013,05,01,13,18,13.00
2013,05,01,13,19,13.00
2013,05,01,13,20,13.00
2013,05,01,13,21,12.90
2013,05,01,13,22,12.80
2013,05,01,13,23,12.80
2013,05,01,13,24,12.80
2013,05,01,13,25,12.90
2013,05,01,13,26,12.90
2013,05,01,13,27,13.00
2013,05,01,13,28,13.00
2013,05,01,13,29,13.00
2013,05,01,13,30,13.10
2013,05,01,13,31,13.10
2013,05,01,13,32,13.20
2013,05,01,13,33,13.20
2013,05,01,13,34,13.20
2013,05,01,13,35,13.20
2013,05,01,13,36,13.20
2013,05,01,13,37,13.10
2013,05,01,13,38,13.00
2013,05,01,13,39,13.10
2013,05,01,13,40,13.10
2013,05,01,13,41,13.10
2013,05,01,13,42,13.10
2013,05,01,13,43,13.10
2013,05,01,13,44,13.10
2013,05,01,13,45,13.10
2013,05,01,13,46,13.10
2013,05,01,13,47,13.10
2013,05,01,13,48,13.20
2013,05,01,13,49,13.20
2013,05,01,13,50,13.20
2013,05,01,13,51,13.20
2013,05,01,13,52,13.30
2013,05,01,13,53,13.30
2013,05,01,13,54,13.40
2013,05,01,13,55,13.50
2013,05,01,13,56,13.60
2013,05,01,13,57,13.70
2013,05,01,13,58,13.80
2013,05,01,13,59,13.80
2013,05,01,14,00,13.80
2013,05,01,14,01,13.70
2013,05,01,14,02,13.70
2013,05,01,14,03,13.60
2013,05,01,14,04,13.60
2013,05,01,14,05,13.50
2013,05,01,14,06,13.40
2013,05,01,14,07,13.40
2013,05,01,14,08,13.30
2013,05,01,14,09,13.30
2013,05,01,14,10,13.20
2013,05,01,14,11,13.20
2013,05,01,14,12,13.10
2013,05,01,14,13,13.10
2013,05,01,14,14,13.10
2013,05,01,14,15,13.10
2013,05,01,14,16,13.10
2013,05,01,14,17,13.00
2013,05,01,14,18,12.90
2013,05,01,14,19,12.90
2013,05,01,14,20,12.80
2013,05,01,14,21,12.80
2013,05,01,14,22,12.80
2013,05,01,14,23,12.70
2013,05,01,14,24,12.70
2013,05,01,14,25,12.70
2013,05,01,14,26,12.60
2013,05,01,14,27,12.60
2013,05,01,14,28,12.60
2013,05,01,14,29,12.60
2013,05,01,14,30,12.60
2013,05,01,14,31,12.50
2013,05,01,14,32,12.50
2013,05,01,14,33,12.60
2013,05,01,14,34,12.60
2013,05,01,14,35,12.60
2013,05,01,14,36,12.60
2013,05,01,14,37,12.60
2013,05,01,14,38,12.60
2013,05,01,14,39,12.60
2013,05,01,14,40,12.60
2013,05,01,14,41,12.60
2013,05,01,14,42,12.60
2013,05,01,14,43,12.60
2013,05,01,14,44,12.60
2013,05,01,14,45,12.60
2013,05,01,14,46,12.60
2013,05,01,14,47,12.70
2013,05,01,14,48,12.70
2013,05,01,14,49,12.80
2013,05,01,14,50,12.80
2013,05,01,14,51,12.90
2013,05,01,14,52,13.00
2013,05,01,14,53,13.10
2013,05,01,14,54,13.20
2013,05,01,14,55,13.20
2013,05,01,14,56,13.30
2013,05,01,14,57,13.30
2013,05,01,14,58,13.20
2013,05,01,14,59,13.20
2013,05,01,15,00,13.10
2013,05,01,15,01,13.10
2013,05,01,15,02,13.00
2013,05,01,15,03,13.00
2013,05,01,15,04,12.90
2013,05,01,15,05,13.00
2013,05,01,15,06,13.00
2013,05,01,15,07,13.10
2013,05,01,15,08,13.20
2013,05,01,15,09,13.20
2013,05,01,15,10,13.20
2013,05,01,15,11,13.20
2013,05,01,15,12,13.20
2013,05,01,15,13,13.20
2013,05,01,15,14,13.20
2013,05,01,15,15,13.30
2013,05,01,15,16,13.30
2013,05,01,15,17,13.40
2013,05,01,15,18,13.40
2013,05,01,15,19,13.40
2013,05,01,15,20,13.40
2013,05,01,15,21,13.50
2013,05,01,15,22,13.50
2013,05,01,15,23,13.60
2013,05,01,15,24,13.60
2013,05,01,15,25,13.60
2013,05,01,15,26,13.60
2013,05,01,15,27,13.70
2013,05,01,15,28,13.70
2013,05,01,15,29,13.80
2013,05,01,15,30,13.80
2013,05,01,15,31,13.80
2013,05,01,15,32,13.80
2013,05,01,15,33,13.80
2013,05,01,15,34,13.80
2013,05,01,15,35,13.80
2013,05,01,15,36,13.60
2013,05,01,15,37,13.60
2013,05,01,15,38,13.60
2013,05,01,15,39,13.60
2013,05,01,15,40,13.60
2013,05,01,15,41,13.70
2013,05,01,15,42,13.70
2013,05,01,15,43,13.80
2013,05,01,15,44,13.80
2013,05,01,15,45,13.80
2013,05,01,15,46,13.80
2013,05,01,15,47,13.70
2013,05,01,15,48,13.70
2013,05,01,15,49,13.60
2013,05,01,15,50,13.60
2013,05,01,15,51,13.60
2013,05,01,15,52,13.70
2013,05,01,15,53,13.70
2013,05,01,15,54,13.80
2013,05,01,15,55,13.80
2013,05,01,15,56,13.80
2013,05,01,15,57,13.90
2013,05,01,15,58,13.90
2013,05,01,15,59,13.90
2013,05,01,16,00,13.90
2013,05,01,16,01,13.90
2013,05,01,16,02,13.90
2013,05,01,16,03,14.00
2013,05,01,16,04,14.00
2013,05,01,16,05,14.00
2013,05,01,16,06,14.00
2013,05,01,16,07,14.10
2013,05,01,16,08,14.10
2013,05,01,16,09,14.10
2013,05,01,16,10,14.10
2013,05,01,16,11,14.10
2013,05,01,16,12,14.20
2013,05,01,16,13,14.20
2013,05,01,16,14,14.30
2013,05,01,16,15,14.30
2013,05,01,16,16,14.40
2013,05,01,16,17,14.40
2013,05,01,16,18,14.40
2013,05,01,16,19,14.40
2013,05,01,16,20,14.30
2013,05,01,16,21,14.30
2013,05,01,16,22,14.30
2013,05,01,16,23,14.30
2013,05,01,16,24,14.40
2013,05,01,16,25,14.40
2013,05,01,16,26,14.40
2013,05,01,16,27,14.30
2013,05,01,16,28,14.30
2013,05,01,16,29,14.30
2013,05,01,16,30,14.30
2013,05,01,16,31,14.30
2013,05,01,16,32,14.40
2013,05,01,16,33,14.50
2013,05,01,16,34,14.50
2013,05,01,16,35,14.60
2013,05,01,16,36,14.60
2013,05,01,16,37,14.60
2013,05,01,16,38,14.60
2013,05,01,16,39,14.60
2013,05,01,16,40,14.60
2013,05,01,16,41,14.60
2013,05,01,16,42,14.60
2013,05,01,16,43,14.60
2013,05,01,16,44,14.60
2013,05,01,16,45,14.60
2013,05,01,16,46,14.60
2013,05,01,16,47,14.70
2013,05,01,16,48,14.70
2013,05,01,16,49,14.60
2013,05,01,16,50,14.60
2013,05,01,16,51,14.50
2013,05,01,16,52,14.50
2013,05,01,16,53,14.40
2013,05,01,16,54,14.30
2013,05,01,16,55,14.30
2013,05,01,16,56,14.40
2013,05,01,16,57,14.40
2013,05,01,16,58,14.40
2013,05,01,16,59,14.50
2013,05,01,17,00,14.50
2013,05,01,17,01,14.50
2013,05,01,17,02,14.50
2013,05,01,17,03,14.40
2013,05,01,17,04,14.40
2013,05,01,17,05,14.30
2013,05,01,17,06,14.30
2013,05,01,17,07,14.30
2013,05,01,17,08,14.20
2013,05,01,17,09,14.20
2013,05,01,17,10,14.20
2013,05,01,17,11,14.20
2013,05,01,17,12,14.20
2013,05,01,17,13,14.20
2013,05,01,17,14,14.20
2013,05,01,17,15,14.20
2013,05,01,17,16,14.20
2013,05,01,17,17,14.20
2013,05,01,17,18,14.20
2013,05,01,17,19,14.20
2013,05,01,17,20,14.20
2013,05,01,17,21,14.20
2013,05,01,17,22,14.20
2013,05,01,17,23,14.30
2013,05,01,17,24,14.30
2013,05,01,17,25,14.30
2013,05,01,17,26,14.30
2013,05,01,17,27,14.30
2013,05,01,17,28,14.40
2013,05,01,17,29,14.40
2013,05,01,17,30,14.50
2013,05,01,17,31,14.60
2013,05,01,17,32,14.70
2013,05,01,17,33,14.70
2013,05,01,17,34,14.80
2013,05,01,17,35,14.90
2013,05,01,17,36,14.90
2013,05,01,17,37,15.00
2013,05,01,17,38,15.00
2013,05,01,17,39,15.00
2013,05,01,17,40,14.90
2013,05,01,17,41,14.90
2013,05,01,17,42,14.90
2013,05,01,17,43,14.90
2013,05,01,17,44,14.90